| time (UTC) | temp F | wind direction | speed knots | gust knots | rain 1hr in | rain 24hr in | rain mn in | humidity % | barometer mb |
| 20260906225329 | 105 | 277 | 5.2 | 9.6 | 0.00 | 0.00 | 0.00 | 21 | 1006.0 |
| 20260906224340 | 105 | 248 | 6.1 | 12.2 | 0.00 | 0.00 | 0.00 | 22 | 1006.1 |
| 20260906223346 | 105 | 217 | 6.1 | 13.0 | 0.00 | 0.00 | 0.00 | 22 | 1006.2 |
| 20260906222353 | 105 | 271 | 5.2 | 12.2 | 0.00 | 0.00 | 0.00 | 22 | 1006.2 |
| 20260906221339 | 105 | 222 | 2.6 | 9.6 | 0.00 | 0.00 | 0.00 | 22 | 1006.4 |
| 20260906220329 | 105 | 271 | 4.3 | 13.0 | 0.00 | 0.00 | 0.00 | 22 | 1006.4 |
| 20260906215356 | 105 | 222 | 6.1 | 12.2 | 0.00 | 0.00 | 0.00 | 22 | 1006.6 |
| 20260906214342 | 105 | 230 | 3.5 | 11.3 | 0.00 | 0.00 | 0.00 | 22 | 1006.8 |
| 20260906213327 | 105 | 272 | 4.3 | 11.3 | 0.00 | 0.00 | 0.00 | 22 | 1006.9 |
| 20260906212355 | 105 | 273 | 3.5 | 11.3 | 0.00 | 0.00 | 0.00 | 22 | 1007.0 |
| 20260906211345 | 105 | 274 | 1.7 | 4.3 | 0.00 | 0.00 | 0.00 | 22 | 1007.1 |
| 20260906210331 | 104 | 36 | 1.7 | 12.2 | 0.00 | 0.00 | 0.00 | 23 | 1007.3 |
| 20260906205339 | 104 | 257 | 4.3 | 8.7 | 0.00 | 0.00 | 0.00 | 23 | 1007.5 |
| 20260906204329 | 104 | 319 | 5.2 | 10.4 | 0.00 | 0.00 | 0.00 | 23 | 1007.5 |
| 20260906203335 | 104 | 260 | 5.2 | 9.6 | 0.00 | 0.00 | 0.00 | 23 | 1007.6 |
| 20260906202342 | 104 | 204 | 1.7 | 13.0 | 0.00 | 0.00 | 0.00 | 23 | 1007.7 |
| 20260906201328 | 103 | 298 | 3.5 | 8.7 | 0.00 | 0.00 | 0.00 | 23 | 1007.8 |
| 20260906200334 | 104 | 298 | 4.3 | 7.0 | 0.00 | 0.00 | 0.00 | 24 | 1007.8 |
| 20260906195346 | 104 | 324 | 2.6 | 7.0 | 0.00 | 0.00 | 0.00 | 24 | 1007.9 |
| 20260906194333 | 103 | 230 | 2.6 | 7.0 | 0.00 | 0.00 | 0.00 | 24 | 1008.1 |
| 20260906193340 | 102 | 55 | 1.7 | 7.8 | 0.00 | 0.00 | 0.00 | 24 | 1008.1 |
| 20260906192346 | 102 | 297 | 4.3 | 9.6 | 0.00 | 0.00 | 0.00 | 24 | 1008.2 |
| 20260906191334 | 102 | 298 | 5.2 | 9.6 | 0.00 | 0.00 | 0.00 | 24 | 1008.3 |
| 20260906190341 | 102 | 249 | 3.5 | 7.8 | 0.00 | 0.00 | 0.00 | 24 | 1008.6 |
| 20260906185329 | 101 | 278 | 3.5 | 9.6 | 0.00 | 0.00 | 0.00 | 25 | 1008.7 |
| 20260906184337 | 100 | 264 | 4.3 | 7.8 | 0.00 | 0.00 | 0.00 | 26 | 1008.8 |
| 20260906183327 | 100 | 274 | 4.3 | 8.7 | 0.00 | 0.00 | 0.00 | 26 | 1009.1 |
| 20260906182334 | 100 | 288 | 3.5 | 7.0 | 0.00 | 0.00 | 0.00 | 26 | 1009.1 |
| 20260906181341 | 99 | 13 | 1.7 | 7.8 | 0.00 | 0.00 | 0.00 | 27 | 1009.4 |
| 20260906180326 | 99 | 257 | 3.5 | 6.1 | 0.00 | 0.00 | 0.00 | 27 | 1009.5 |
| 20260906175336 | 99 | 360 | 2.6 | 5.2 | 0.00 | 0.00 | 0.00 | 27 | 1009.4 |
| 20260906174342 | 98 | 187 | 1.7 | 6.1 | 0.00 | 0.00 | 0.00 | 27 | 1009.6 |
| 20260906173351 | 98 | 310 | 2.6 | 6.1 | 0.00 | 0.00 | 0.00 | 28 | 1009.6 |
| 20260906172336 | 98 | 280 | 2.6 | 6.1 | 0.00 | 0.00 | 0.00 | 28 | 1009.8 |
| 20260906171328 | 97 | 264 | 0.0 | 5.2 | 0.00 | 0.00 | 0.00 | 29 | 1009.9 |
| 20260906170334 | 96 | 286 | 0.0 | 2.6 | 0.00 | 0.00 | 0.00 | 30 | 1009.9 |
| 20260906165342 | 96 | 261 | 0.9 | 5.2 | 0.00 | 0.00 | 0.00 | 30 | 1010.0 |
| 20260906164329 | 95 | 344 | 1.7 | 2.6 | 0.00 | 0.00 | 0.00 | 30 | 1010.0 |
| 20260906163341 | 94 | 163 | 2.6 | 5.2 | 0.00 | 0.00 | 0.00 | 31 | 1010.0 |
| 20260906162327 | 94 | 172 | 0.0 | 3.5 | 0.00 | 0.00 | 0.00 | 31 | 1010.0 |
| 20260906161335 | 94 | 230 | 1.7 | 5.2 | 0.00 | 0.00 | 0.00 | 32 | 1010.1 |
| 20260906160342 | 94 | 108 | 0.0 | 1.7 | 0.00 | 0.00 | 0.00 | 34 | 1010.1 |
| 20260906155332 | 93 | 148 | 0.0 | 1.7 | 0.00 | 0.00 | 0.00 | 34 | 1010.2 |
| 20260906154341 | 92 | 360 | 0.0 | 1.7 | 0.00 | 0.00 | 0.00 | 36 | 1010.2 |
| 20260906153329 | 91 | 360 | 0.0 | 1.7 | 0.00 | 0.00 | 0.00 | 37 | 1010.1 |
| 20260906152335 | 90 | 306 | 0.0 | 1.7 | 0.00 | 0.00 | 0.00 | 39 | 1010.1 |
| 20260906151346 | 89 | 295 | 0.0 | 1.7 | 0.00 | 0.00 | 0.00 | 39 | 1010.2 |
| 20260906150329 | 88 | 321 | 0.0 | 1.7 | 0.00 | 0.00 | 0.00 | 41 | 1010.1 |
| 20260906145336 | 87 | 323 | 0.0 | 1.7 | 0.00 | 0.00 | 0.00 | 43 | 1010.1 |
| 20260906144341 | 86 | 17 | 0.0 | 1.7 | 0.00 | 0.00 | 0.00 | 43 | 1010.0 |
| 20260906143333 | 85 | 23 | 0.9 | 2.6 | 0.00 | 0.00 | 0.00 | 44 | 1009.9 |
| 20260906142339 | 84 | 20 | 0.0 | 2.6 | 0.00 | 0.00 | 0.00 | 46 | 1009.8 |
| 20260906141327 | 82 | 360 | 0.9 | 1.7 | 0.00 | 0.00 | 0.00 | 49 | 1009.7 |
| 20260906140333 | 81 | 11 | 0.0 | 0.0 | 0.00 | 0.00 | 0.00 | 53 | 1009.6 |
| 20260906135405 | 80 | 336 | 0.0 | 0.0 | 0.00 | 0.00 | 0.00 | 53 | 1009.5 |
| 20260906134351 | 80 | 336 | 0.0 | 0.0 | 0.00 | 0.00 | 0.00 | 54 | 1009.3 |
| 20260906133337 | 80 | 336 | 0.0 | 0.0 | 0.00 | 0.00 | 0.00 | 53 | 1009.2 |
| 20260906132344 | 80 | 336 | 0.0 | 0.0 | 0.00 | 0.00 | 0.00 | 52 | 1009.2 |
| 20260906131335 | 80 | 336 | 0.0 | 0.0 | 0.00 | 0.00 | 0.00 | 52 | 1009.1 |
| 20260906130342 | 80 | 336 | 0.0 | 0.0 | 0.00 | 0.00 | 0.00 | 52 | 1009.0 |
| 20260906125329 | 80 | 336 | 0.0 | 0.0 | 0.00 | 0.00 | 0.00 | 53 | 1008.8 |
| 20260906124335 | 81 | 336 | 0.0 | 0.0 | 0.00 | 0.00 | 0.00 | 51 | 1008.9 |
| 20260906123327 | 81 | 336 | 0.0 | 0.0 | 0.00 | 0.00 | 0.00 | 50 | 1008.9 |
| 20260906122332 | 81 | 336 | 0.0 | 0.0 | 0.00 | 0.00 | 0.00 | 51 | 1008.7 |
| 20260906121339 | 81 | 336 | 0.0 | 0.0 | 0.00 | 0.00 | 0.00 | 51 | 1008.8 |
| 20260906120326 | 81 | 336 | 0.0 | 0.0 | 0.00 | 0.00 | 0.00 | 50 | 1008.8 |
| 20260906115337 | 82 | 336 | 0.0 | 0.0 | 0.00 | 0.00 | 0.00 | 50 | 1008.7 |
| 20260906114344 | 82 | 336 | 0.0 | 0.0 | 0.00 | 0.00 | 0.00 | 49 | 1008.8 |
| 20260906113330 | 82 | 336 | 0.0 | 0.0 | 0.00 | 0.00 | 0.00 | 49 | 1008.8 |
| 20260906112336 | 82 | 336 | 0.0 | 0.0 | 0.00 | 0.00 | 0.00 | 48 | 1008.9 |
| 20260906111347 | 83 | 336 | 0.0 | 0.0 | 0.00 | 0.00 | 0.00 | 48 | 1008.8 |
| 20260906110332 | 83 | 336 | 0.0 | 0.0 | 0.00 | 0.00 | 0.00 | 47 | 1008.7 |
| 20260906105339 | 82 | 235 | 0.0 | 0.0 | 0.00 | 0.00 | 0.00 | 47 | 1008.7 |
| 20260906104327 | 82 | 235 | 0.0 | 0.0 | 0.00 | 0.00 | 0.00 | 46 | 1008.7 |
| 20260906103340 | 82 | 329 | 0.0 | 0.0 | 0.00 | 0.00 | 0.00 | 47 | 1008.6 |
| 20260906102327 | 83 | 329 | 0.0 | 0.0 | 0.00 | 0.00 | 0.00 | 46 | 1008.6 |
| 20260906101353 | 83 | 329 | 0.0 | 0.0 | 0.00 | 0.00 | 0.00 | 46 | 1008.6 |
| 20260906100339 | 83 | 329 | 0.0 | 0.0 | 0.00 | 0.00 | 0.00 | 46 | 1008.6 |
| 20260906095327 | 84 | 329 | 0.0 | 0.0 | 0.00 | 0.00 | 0.00 | 45 | 1008.6 |
| 20260906094352 | 84 | 329 | 0.0 | 0.0 | 0.00 | 0.00 | 0.00 | 45 | 1008.7 |
| 20260906093338 | 84 | 329 | 0.0 | 0.0 | 0.00 | 0.00 | 0.00 | 45 | 1008.7 |
| 20260906092405 | 84 | 329 | 0.0 | 0.0 | 0.00 | 0.00 | 0.00 | 44 | 1008.6 |
| 20260906091330 | 85 | 329 | 0.0 | 0.0 | 0.00 | 0.00 | 0.00 | 44 | 1008.6 |
| 20260906090401 | 85 | 329 | 0.0 | 0.0 | 0.00 | 0.00 | 0.00 | 44 | 1008.6 |
| 20260906085327 | 86 | 329 | 0.0 | 0.0 | 0.00 | 0.00 | 0.00 | 43 | 1008.6 |
| 20260906084335 | 86 | 329 | 0.0 | 0.0 | 0.00 | 0.00 | 0.00 | 42 | 1008.7 |
| 20260906083342 | 86 | 329 | 0.0 | 0.0 | 0.00 | 0.00 | 0.00 | 42 | 1008.8 |
| 20260906082333 | 86 | 329 | 0.0 | 0.0 | 0.00 | 0.00 | 0.00 | 42 | 1008.8 |
| 20260906081340 | 86 | 329 | 0.0 | 0.0 | 0.00 | 0.00 | 0.00 | 41 | 1008.9 |
| 20260906080327 | 87 | 329 | 0.0 | 0.0 | 0.00 | 0.00 | 0.00 | 42 | 1009.0 |
| 20260906075333 | 87 | 302 | 0.0 | 0.0 | 0.00 | 0.00 | 0.00 | 42 | 1009.1 |
| 20260906074343 | 87 | 302 | 0.0 | 0.0 | 0.00 | 0.00 | 0.00 | 41 | 1009.1 |
| 20260906073329 | 87 | 302 | 0.0 | 0.0 | 0.00 | 0.00 | 0.00 | 41 | 1009.1 |
| 20260906072357 | 87 | 302 | 0.0 | 0.0 | 0.00 | 0.00 | 0.00 | 40 | 1009.1 |
| 20260906071343 | 87 | 302 | 0.0 | 0.0 | 0.00 | 0.00 | 0.00 | 40 | 1009.1 |
| 20260906070335 | 88 | 302 | 0.0 | 0.0 | 0.00 | 0.00 | 0.00 | 39 | 1009.3 |
| 20260906065341 | 88 | 302 | 0.0 | 0.0 | 0.00 | 0.00 | 0.00 | 39 | 1009.2 |
| 20260906064327 | 88 | 302 | 0.0 | 0.0 | 0.00 | 0.00 | 0.00 | 40 | 1009.2 |
| 20260906063334 | 89 | 302 | 0.0 | 0.0 | 0.00 | 0.00 | 0.00 | 40 | 1009.2 |
| 20260906062343 | 89 | 302 | 0.0 | 0.0 | 0.00 | 0.00 | 0.00 | 38 | 1009.1 |
| 20260906061329 | 89 | 289 | 0.0 | 0.0 | 0.00 | 0.00 | 0.00 | 37 | 1009.2 |
| 20260906060336 | 89 | 290 | 0.0 | 0.0 | 0.00 | 0.00 | 0.00 | 37 | 1009.2 |
| 20260906055342 | 90 | 290 | 0.0 | 0.0 | 0.00 | 0.00 | 0.00 | 37 | 1009.3 |
| 20260906054334 | 90 | 290 | 0.0 | 0.0 | 0.00 | 0.00 | 0.00 | 35 | 1009.3 |
| 20260906053341 | 90 | 290 | 0.0 | 0.0 | 0.00 | 0.00 | 0.00 | 36 | 1009.3 |
| 20260906052328 | 90 | 18 | 0.0 | 0.0 | 0.00 | 0.00 | 0.00 | 36 | 1009.4 |
| 20260906051335 | 90 | 18 | 0.0 | 0.0 | 0.00 | 0.00 | 0.00 | 35 | 1009.4 |
| 20260906050326 | 90 | 18 | 0.0 | 0.0 | 0.00 | 0.00 | 0.00 | 34 | 1009.5 |
| 20260906045333 | 90 | 18 | 0.0 | 0.0 | 0.00 | 0.00 | 0.00 | 35 | 1009.4 |
| 20260906044400 | 90 | 346 | 0.0 | 0.0 | 0.00 | 0.00 | 0.00 | 35 | 1009.4 |
| 20260906043327 | 91 | 319 | 0.0 | 0.0 | 0.00 | 0.00 | 0.00 | 35 | 1009.3 |
| 20260906042400 | 91 | 338 | 0.0 | 0.0 | 0.00 | 0.00 | 0.00 | 34 | 1009.3 |
| 20260906041327 | 92 | 339 | 0.0 | 0.0 | 0.00 | 0.00 | 0.00 | 33 | 1009.3 |
| 20260906040332 | 92 | 338 | 0.0 | 0.0 | 0.00 | 0.00 | 0.00 | 33 | 1009.4 |
| 20260906035338 | 93 | 338 | 0.0 | 0.0 | 0.00 | 0.00 | 0.00 | 32 | 1009.3 |
| 20260906034330 | 93 | 339 | 0.0 | 0.0 | 0.00 | 0.00 | 0.00 | 31 | 1009.2 |
| 20260906033337 | 93 | 339 | 0.0 | 0.0 | 0.00 | 0.00 | 0.00 | 31 | 1009.1 |
| 20260906032343 | 94 | 309 | 0.0 | 0.0 | 0.00 | 0.00 | 0.00 | 31 | 1009.0 |
| 20260906031351 | 94 | 336 | 0.0 | 0.9 | 0.00 | 0.00 | 0.00 | 30 | 1008.9 |
| 20260906030341 | 94 | 344 | 0.9 | 2.6 | 0.00 | 0.00 | 0.00 | 30 | 1008.9 |
| 20260906025328 | 94 | 308 | 0.9 | 3.5 | 0.00 | 0.00 | 0.00 | 29 | 1008.8 |
| 20260906024335 | 95 | 290 | 0.9 | 7.0 | 0.00 | 0.00 | 0.00 | 29 | 1008.8 |
| 20260906023342 | 95 | 296 | 1.7 | 3.5 | 0.00 | 0.00 | 0.00 | 29 | 1008.7 |
| 20260906022333 | 95 | 323 | 1.7 | 5.2 | 0.00 | 0.00 | 0.00 | 28 | 1008.6 |
| 20260906021340 | 96 | 311 | 3.5 | 5.2 | 0.00 | 0.00 | 0.00 | 28 | 1008.6 |
| 20260906020328 | 96 | 336 | 1.7 | 7.8 | 0.00 | 0.00 | 0.00 | 28 | 1008.6 |
| 20260906015333 | 96 | 300 | 2.6 | 7.0 | 0.00 | 0.00 | 0.00 | 27 | 1008.6 |
| 20260906014344 | 97 | 309 | 2.6 | 7.8 | 0.00 | 0.00 | 0.00 | 27 | 1008.6 |
| 20260906013330 | 97 | 304 | 2.6 | 8.7 | 0.00 | 0.00 | 0.00 | 27 | 1008.6 |
| 20260906012339 | 97 | 315 | 5.2 | 8.7 | 0.00 | 0.00 | 0.00 | 26 | 1008.7 |
| 20260906011326 | 98 | 304 | 2.6 | 7.8 | 0.00 | 0.00 | 0.00 | 26 | 1008.7 |
| 20260906010338 | 98 | 327 | 4.3 | 9.6 | 0.00 | 0.00 | 0.00 | 25 | 1008.8 |
| 20260906005403 | 98 | 283 | 1.7 | 7.0 | 0.00 | 0.00 | 0.00 | 25 | 1008.7 |
| 20260906004328 | 99 | 252 | 2.6 | 7.0 | 0.00 | 0.00 | 0.00 | 25 | 1008.7 |
| 20260906003335 | 99 | 270 | 1.7 | 6.1 | 0.00 | 0.00 | 0.00 | 25 | 1008.7 |
| 20260906002327 | 99 | 298 | 4.3 | 7.8 | 0.00 | 0.00 | 0.00 | 25 | 1008.7 |
| 20260906001333 | 99 | 256 | 1.7 | 9.6 | 0.00 | 0.00 | 0.00 | 25 | 1008.6 |
| 20260906000341 | 99 | 277 | 3.5 | 7.8 | 0.00 | 0.00 | 0.00 | 24 | 1008.6 |
| 20260905235327 | 100 | 257 | 4.3 | 8.7 | 0.00 | 0.00 | 0.00 | 24 | 1008.6 |
| 20260905234339 | 101 | 308 | 2.6 | 8.7 | 0.00 | 0.00 | 0.00 | 23 | 1008.6 |
| 20260905233406 | 101 | 327 | 4.3 | 11.3 | 0.00 | 0.00 | 0.00 | 24 | 1008.7 |
| 20260905232332 | 101 | 285 | 5.2 | 10.4 | 0.00 | 0.00 | 0.00 | 24 | 1008.7 |
| 20260905231338 | 102 | 261 | 5.2 | 12.2 | 0.00 | 0.00 | 0.00 | 23 | 1008.7 |
| 20260905230327 | 102 | 296 | 4.3 | 14.8 | 0.00 | 0.00 | 0.00 | 23 | 1008.7 |